Tracking 19476 objects as of 18-Jan-2019
HD Live streaming from Space Station
objects crossing your sky now

METEOR 1-16

Track METEOR 1-16 now!
10-day predictions
METEOR 1-16 is classified as:


NORAD ID: 7209
Int'l Code: 1974-011A
Perigee: 825.1 km
Apogee: 881.3 km
Inclination: 81.2 °
Period: 101.8 minutes
Semi major axis: 7224 km
RCS: 4.3253 m2 (large)
Launch date: March 5, 1974
Source: Commonwealth of Independent States (former USSR) (CIS)
Launch site: PLESETSK MISSILE AND SPACE COMPLEX (PKMTR)
aabbcc
Your satellite tracking list
Your tracking list is empty




NASA's NSSDC Master Catalog

Two Line Element Set (TLE):
1  7209U 74011A   19017.88782388  .00000055  00000-0  22172-4 0  9999
2  7209  81.2276 167.6137 0038889 190.2593 169.7791 14.13887073312864
Source of the keplerian elements: AFSPC